When you browse on this site, cookies collect data to enhance your experience and personalize the content and advertising you see.
Visit our Privacy Policy to learn more. By continuing to use the site, you agree to this use of cookies and data.
  • în România
  • Lista ţărilor
  • Pe 7 zile
  • Temperatura apei
  • Meteo pe hartă
  • Widget-uri
  • user-avatar
    Intrare

    Meteo pe oră la Cumaná

    Astăzi, 15 Decembrie, Duminică

    Timp Temperatura Precipitaţii Vânt Presiune Umiditate
    00:00 +25°C° 0 mm 4 m/s 751 mmHg 93%
    01:00 +25°C° 0 mm 3 m/s 751 mmHg 93%
    02:00 +25°C° 0 mm 3 m/s 751 mmHg 93%
    03:00 +25°C° 0.2 mm 3 m/s 751 mmHg 93%
    04:00 +25°C° 0.2 mm 3 m/s 751 mmHg 93%
    05:00 +25°C° 0.2 mm 3 m/s 751 mmHg 92%
    06:00 +26°C° 0.2 mm 3 m/s 751 mmHg 91%
    07:00 +27°C° 0.2 mm 3 m/s 752 mmHg 89%
    08:00 +28°C° 0.2 mm 2 m/s 752 mmHg 88%
    09:00 +29°C° 0.1 mm 2 m/s 752 mmHg 85%
    10:00 +30°C° 0.1 mm 3 m/s 753 mmHg 82%
    11:00 +31°C° 0.1 mm 3 m/s 753 mmHg 79%
    12:00 +30°C° 0.5 mm 3 m/s 752 mmHg 83%
    13:00 +30°C° 0.5 mm 3 m/s 751 mmHg 87%
    14:00 +30°C° 0.5 mm 3 m/s 751 mmHg 91%
    15:00 +29°C° 0.4 mm 4 m/s 750 mmHg 93%
    16:00 +29°C° 0.4 mm 4 m/s 750 mmHg 95%
    17:00 +28°C° 0.4 mm 5 m/s 750 mmHg 97%
    18:00 +27°C° 0.3 mm 5 m/s 750 mmHg 97%
    19:00 +27°C° 0.3 mm 5 m/s 751 mmHg 98%
    20:00 +26°C° 0.3 mm 5 m/s 751 mmHg 98%
    21:00 +26°C° 0.1 mm 5 m/s 752 mmHg 97%
    22:00 +26°C° 0.1 mm 4 m/s 752 mmHg 96%
    23:00 +25°C° 0.1 mm 4 m/s 752 mmHg 95%

    Mâine, 16 Decembrie, Luni

    Timp Temperatura Precipitaţii Vânt Presiune Umiditate
    00:00 +25°C° 0 mm 4 m/s 752 mmHg 95%
    01:00 +25°C° 0 mm 4 m/s 751 mmHg 94%
    02:00 +25°C° 0 mm 4 m/s 751 mmHg 94%
    03:00 +25°C° 0 mm 4 m/s 751 mmHg 93%
    04:00 +25°C° 0 mm 4 m/s 751 mmHg 93%
    05:00 +23°C° 0 mm 4 m/s 751 mmHg 93%
    06:00 +25°C° 0 mm 4 m/s 751 mmHg 91%
    07:00 +26°C° 0 mm 4 m/s 751 mmHg 89%
    08:00 +27°C° 0 mm 4 m/s 752 mmHg 87%
    09:00 +29°C° 0 mm 4 m/s 752 mmHg 79%
    10:00 +32°C° 0 mm 4 m/s 752 mmHg 72%
    11:00 +34°C° 0 mm 5 m/s 752 mmHg 64%
    12:00 +33°C° 0.3 mm 5 m/s 752 mmHg 72%
    13:00 +32°C° 0.3 mm 5 m/s 751 mmHg 80%
    14:00 +30°C° 0.3 mm 6 m/s 750 mmHg 88%
    15:00 +29°C° 0.2 mm 6 m/s 750 mmHg 91%
    16:00 +29°C° 0.2 mm 6 m/s 749 mmHg 93%
    17:00 +28°C° 0.2 mm 6 m/s 749 mmHg 95%
    18:00 +27°C° 0.1 mm 6 m/s 749 mmHg 96%
    19:00 +26°C° 0.1 mm 6 m/s 750 mmHg 97%
    20:00 +26°C° 0.1 mm 6 m/s 750 mmHg 98%
    21:00 +24°C° 0 mm 6 m/s 750 mmHg 98%
    22:00 +25°C° 0 mm 5 m/s 751 mmHg 97%
    23:00 +25°C° 0 mm 5 m/s 751 mmHg 96%

    Poimâine, 17 Decembrie, Marţi

    Timp Temperatura Precipitaţii Vânt Presiune Umiditate
    00:00 +25°C° 0 mm 5 m/s 751 mmHg 95%
    01:00 +23°C° 0 mm 4 m/s 750 mmHg 94%
    02:00 +23°C° 0 mm 4 m/s 750 mmHg 94%
    03:00 +23°C° 0 mm 4 m/s 750 mmHg 93%
    04:00 +23°C° 0 mm 4 m/s 750 mmHg 92%
    05:00 +23°C° 0 mm 4 m/s 750 mmHg 92%
    06:00 +25°C° 0 mm 4 m/s 750 mmHg 90%
    07:00 +26°C° 0 mm 3 m/s 750 mmHg 89%
    08:00 +27°C° 0 mm 3 m/s 751 mmHg 87%
    09:00 +29°C° 0 mm 3 m/s 751 mmHg 81%
    10:00 +30°C° 0 mm 3 m/s 751 mmHg 74%
    11:00 +33°C° 0 mm 3 m/s 751 mmHg 67%
    12:00 +33°C° 0.2 mm 3 m/s 750 mmHg 70%
    13:00 +31°C° 0.2 mm 3 m/s 750 mmHg 72%
    14:00 +32°C° 0.2 mm 4 m/s 749 mmHg 74%
    15:00 +30°C° 0.3 mm 4 m/s 749 mmHg 79%
    16:00 +29°C° 0.3 mm 5 m/s 748 mmHg 83%
    17:00 +29°C° 0.3 mm 5 m/s 748 mmHg 88%
    18:00 +27°C° 0 mm 6 m/s 748 mmHg 89%
    19:00 +26°C° 0 mm 6 m/s 749 mmHg 90%
    20:00 +24°C° 0 mm 7 m/s 749 mmHg 91%
    21:00 +24°C° 0 mm 6 m/s 750 mmHg 90%
    22:00 +24°C° 0 mm 6 m/s 750 mmHg 89%
    23:00 +23°C° 0 mm 5 m/s 750 mmHg 88%

    18 Decembrie, Miercuri

    Timp Temperatura Precipitaţii Vânt Presiune Umiditate
    00:00 +23°C° 0 mm 5 m/s 750 mmHg 87%
    01:00 +23°C° 0 mm 5 m/s 750 mmHg 86%
    02:00 +23°C° 0 mm 5 m/s 749 mmHg 86%
    03:00 +23°C° 0 mm 4 m/s 749 mmHg 87%
    04:00 +23°C° 0 mm 4 m/s 749 mmHg 88%
    05:00 +23°C° 0 mm 4 m/s 749 mmHg 89%
    06:00 +25°C° 0 mm 4 m/s 750 mmHg 85%
    07:00 +26°C° 0 mm 3 m/s 750 mmHg 82%
    08:00 +27°C° 0 mm 3 m/s 751 mmHg 79%
    09:00 +29°C° 0 mm 4 m/s 751 mmHg 73%
    10:00 +30°C° 0 mm 4 m/s 751 mmHg 67%
    11:00 +33°C° 0 mm 4 m/s 751 mmHg 61%
    12:00 +32°C° 0.1 mm 5 m/s 751 mmHg 65%
    13:00 +32°C° 0.1 mm 5 m/s 750 mmHg 69%
    14:00 +32°C° 0.1 mm 5 m/s 749 mmHg 73%
    15:00 +30°C° 0.2 mm 6 m/s 749 mmHg 77%
    16:00 +30°C° 0.2 mm 6 m/s 749 mmHg 81%
    17:00 +29°C° 0.2 mm 6 m/s 748 mmHg 86%
    18:00 +28°C° 0 mm 6 m/s 749 mmHg 87%
    19:00 +26°C° 0 mm 6 m/s 749 mmHg 88%
    20:00 +24°C° 0 mm 6 m/s 750 mmHg 90%
    21:00 +23°C° 0 mm 6 m/s 750 mmHg 89%
    22:00 +23°C° 0 mm 5 m/s 750 mmHg 87%
    23:00 +23°C° 0 mm 5 m/s 751 mmHg 86%

    19 Decembrie, Joi

    Timp Temperatura Precipitaţii Vânt Presiune Umiditate
    00:00 +23°C° 0 mm 5 m/s 750 mmHg 85%
    01:00 +23°C° 0 mm 4 m/s 750 mmHg 83%
    02:00 +22°C° 0 mm 4 m/s 750 mmHg 82%
    03:00 +22°C° 0 mm 3 m/s 750 mmHg 82%
    04:00 +22°C° 0 mm 3 m/s 750 mmHg 82%
    05:00 +22°C° 0 mm 3 m/s 750 mmHg 83%
    06:00 +25°C° 0 mm 3 m/s 750 mmHg 80%
    07:00 +26°C° 0 mm 3 m/s 751 mmHg 77%
    08:00 +27°C° 0 mm 3 m/s 752 mmHg 74%
    09:00 +29°C° 0 mm 3 m/s 752 mmHg 68%
    10:00 +31°C° 0 mm 3 m/s 752 mmHg 62%
    11:00 +33°C° 0 mm 3 m/s 752 mmHg 56%
    12:00 +33°C° 0 mm 3 m/s 751 mmHg 59%
    13:00 +33°C° 0 mm 4 m/s 750 mmHg 63%
    14:00 +33°C° 0 mm 4 m/s 750 mmHg 67%
    15:00 +32°C° 0.1 mm 4 m/s 749 mmHg 74%
    16:00 +29°C° 0.1 mm 5 m/s 749 mmHg 82%
    17:00 +28°C° 0.1 mm 5 m/s 749 mmHg 90%
    18:00 +27°C° 0 mm 5 m/s 749 mmHg 92%
    19:00 +26°C° 0 mm 5 m/s 750 mmHg 93%
    20:00 +26°C° 0 mm 6 m/s 751 mmHg 95%
    21:00 +25°C° 0 mm 5 m/s 751 mmHg 93%
    22:00 +25°C° 0 mm 5 m/s 751 mmHg 91%
    23:00 +25°C° 0 mm 4 m/s 751 mmHg 89%

    20 Decembrie, Vineri

    Timp Temperatura Precipitaţii Vânt Presiune Umiditate
    00:00 +25°C° 0 mm 4 m/s 751 mmHg 88%
    01:00 +25°C° 0 mm 4 m/s 751 mmHg 87%
    02:00 +25°C° 0 mm 3 m/s 750 mmHg 86%
    03:00 +25°C° 0 mm 3 m/s 750 mmHg 87%
    04:00 +25°C° 0 mm 3 m/s 750 mmHg 88%
    05:00 +25°C° 0 mm 2 m/s 750 mmHg 89%
    06:00 +26°C° 0 mm 2 m/s 751 mmHg 87%
    07:00 +27°C° 0 mm 2 m/s 751 mmHg 86%
    08:00 +28°C° 0 mm 3 m/s 752 mmHg 84%
    09:00 +29°C° 0.1 mm 3 m/s 752 mmHg 81%
    10:00 +30°C° 0.1 mm 4 m/s 752 mmHg 78%
    11:00 +32°C° 0.1 mm 4 m/s 752 mmHg 75%
    12:00 +32°C° 0.6 mm 5 m/s 751 mmHg 79%
    13:00 +32°C° 0.6 mm 5 m/s 750 mmHg 82%
    14:00 +30°C° 0.6 mm 6 m/s 750 mmHg 86%
    15:00 +30°C° 0.4 mm 6 m/s 749 mmHg 88%
    16:00 +30°C° 0.4 mm 6 m/s 749 mmHg 90%
    17:00 +29°C° 0.4 mm 6 m/s 749 mmHg 92%
    18:00 +28°C° 0.1 mm 6 m/s 750 mmHg 93%
    19:00 +27°C° 0.1 mm 6 m/s 750 mmHg 93%
    20:00 +26°C° 0.1 mm 6 m/s 751 mmHg 94%
    21:00 +26°C° 0 mm 6 m/s 751 mmHg 92%
    22:00 +26°C° 0 mm 5 m/s 751 mmHg 91%
    23:00 +25°C° 0 mm 4 m/s 751 mmHg 89%
    Arată mai mult